QZS-3 (MICHIBIKI-3)

Last updated on Sat Aug 22 2026 00:02:59 GMT+0000 (Coordinated Universal Time)

1 42917U 17048A 26233.50730799 -.00000350 00000+0 00000+0 0 9996 2 42917 0.0709 216.3916 0002290 283.9874 139.0948 1.00274928 32915
UTC large
Height (km)
Speed (km/s)
/
Latitude / Longitude
Inclination (degrees)
Orbital Period (minutes)
Azimuth
Elevation
Range (km)
Doppler Factor

Next 0 passes for location: London (51.5072 / 0.1276)

No passes found over London.
QZS-3 (MICHIBIKI-3)